DG6YGE-6 Weather Reports


time (UTC)temp
F
wind
direction
speed
knots
gust
knots
rain 1hr
in
rain 24hr
in
rain mn
in
humidity
%
barometer
mb
20260506212910 47 74 2.6 7.8 0.02 1.06 1.06 94 1008.3
20260506211910 47 300 2.6 11.3 0.02 1.05 1.05 94 1008.3
20260506210910 47 69 2.6 8.7 0.02 1.05 1.05 94 1008.2
20260506205910 47 196 2.6 8.7 0.02 1.05 1.05 94 1008.1
20260506204910 47 360 3.5 8.7 0.01 1.04 1.04 94 1008.1
20260506203910 47 116 2.6 7.8 0.01 1.04 1.04 94 1008.1
20260506202910 47 350 1.7 5.2 0.01 1.04 1.04 94 1008.1
20260506201910 47 355 4.3 8.7 0.00 1.03 1.03 94 1008.0
20260506200910 47 355 2.6 7.8 0.00 1.03 1.03 94 1008.0
20260506195910 47 344 3.5 10.4 0.00 1.03 1.03 94 1007.8
20260506194910 47 118 2.6 5.2 0.00 1.03 1.03 94 1007.8
20260506193910 47 144 2.6 4.3 0.00 1.03 1.03 93 1007.8
20260506192910 47 225 1.7 4.3 0.00 1.03 1.03 93 1007.7
20260506191910 47 360 1.7 7.8 0.00 1.03 1.03 93 1007.6
20260506190910 47 138 1.7 5.2 0.00 1.03 1.03 93 1007.6
20260506185910 47 109 2.6 6.1 0.00 1.03 1.03 93 1007.5
20260506184910 47 360 3.5 7.0 0.00 1.03 1.03 93 1007.3
20260506183910 47 193 3.5 7.8 0.00 1.03 1.03 93 1007.3
20260506182910 47 198 2.6 7.8 0.00 1.03 1.03 93 1007.2
20260506181910 47 236 2.6 7.8 0.00 1.03 1.03 93 1007.2
20260506180910 47 343 2.6 7.0 0.00 1.03 1.03 94 1007.2
20260506175910 47 290 2.6 5.2 0.00 1.03 1.03 94 1007.1
20260506174910 47 138 2.6 7.8 0.00 1.03 1.03 94 1007.0
20260506173910 47 167 3.5 7.0 0.00 1.03 1.03 94 1006.8
20260506172910 47 190 2.6 7.0 0.00 1.03 1.03 94 1006.8
20260506171910 47 190 3.5 7.0 0.01 1.03 1.03 94 1006.6
20260506170910 47 288 3.5 8.7 0.01 1.03 1.03 94 1006.7
20260506165910 47 20 3.5 8.7 0.01 1.03 1.03 94 1006.7
20260506164910 47 166 3.5 7.0 0.01 1.03 1.03 94 1006.6
20260506163910 47 169 3.5 10.4 0.01 1.03 1.03 94 1006.6
20260506162910 47 132 4.3 8.7 0.01 1.03 1.03 94 1006.7
20260506161910 47 122 2.6 6.1 0.00 1.02 1.02 94 1006.7
20260506160910 47 96 2.6 6.1 0.01 1.02 1.02 94 1006.6
20260506155910 47 107 3.5 7.0 0.01 1.02 1.02 93 1006.6
20260506154910 48 128 3.5 7.0 0.01 1.02 1.02 94 1006.7
20260506153910 48 183 3.5 8.7 0.01 1.02 1.02 94 1006.5
20260506152910 48 60 3.5 7.0 0.01 1.02 1.02 94 1006.5
20260506151910 48 86 3.5 7.8 0.02 1.02 1.02 94 1006.5
20260506150910 48 208 4.3 7.0 0.01 1.01 1.01 94 1006.3
20260506145910 48 150 3.5 9.6 0.02 1.01 1.01 94 1006.3
20260506144910 48 182 2.6 7.8 0.03 1.01 1.01 94 1006.3
20260506143910 48 178 2.6 6.1 0.04 1.01 1.01 94 1006.3
20260506142910 48 153 4.3 8.7 0.05 1.01 1.01 94 1006.2
20260506141910 48 306 2.6 7.8 0.04 1.00 1.00 94 1006.2
20260506140910 48 211 3.5 7.0 0.04 1.00 1.00 94 1006.3
20260506135910 48 291 2.6 6.1 0.04 0.99 0.99 94 1006.3
20260506134910 48 183 1.7 5.2 0.03 0.98 0.98 94 1006.4
20260506133910 48 248 1.7 4.3 0.03 0.97 0.97 94 1006.3
20260506132910 48 141 2.6 6.1 0.02 0.96 0.96 94 1006.3
20260506131910 48 177 3.5 7.0 0.03 0.96 0.96 94 1005.9
20260506130909 48 198 2.6 5.2 0.03 0.96 0.96 94 1005.8
20260506125910 48 244 2.6 6.1 0.02 0.95 0.95 94 1005.8
20260506124910 48 202 1.7 4.3 0.03 0.95 0.95 94 1005.9
20260506123909 48 173 2.6 4.3 0.03 0.94 0.94 95 1005.7
20260506122909 47 165 2.6 6.1 0.04 0.94 0.94 94 1005.8
20260506121910 47 227 1.7 5.2 0.03 0.94 0.94 94 1005.7
20260506120910 47 202 2.6 6.1 0.04 0.94 0.94 94 1005.6
20260506115910 47 180 1.7 6.1 0.05 0.94 0.94 94 1005.6
20260506114909 47 119 1.7 5.2 0.04 0.93 0.93 94 1005.5
20260506113917 47 94 1.7 4.3 0.04 0.92 0.92 94 1005.6
20260506112909 46 332 2.6 5.2 0.03 0.91 0.91 94 1005.6
20260506111909 46 192 2.6 4.3 0.03 0.91 0.91 94 1005.7
20260506110914 46 82 2.6 7.8 0.03 0.90 0.90 94 1005.6
20260506105914 46 99 3.5 7.8 0.02 0.89 0.89 94 1005.5
20260506104914 46 129 2.6 7.0 0.03 0.89 0.89 94 1005.6
20260506103914 46 204 2.6 7.0 0.02 0.88 0.88 94 1005.4
20260506102914 46 15 2.6 8.7 0.02 0.88 0.88 94 1005.5
20260506101914 45 115 3.5 7.8 0.03 0.88 0.88 94 1005.5
20260506100914 45 195 2.6 8.7 0.03 0.87 0.87 94 1005.4
20260506095914 46 244 3.5 11.3 0.03 0.87 0.87 94 1005.3
20260506094914 46 209 4.3 9.6 0.03 0.86 0.86 94 1005.3
20260506093914 45 113 3.5 8.7 0.03 0.86 0.86 94 1005.2
20260506092914 45 217 3.5 7.0 0.04 0.86 0.86 94 1005.1
20260506091914 45 289 3.5 7.0 0.04 0.85 0.85 94 1005.1
20260506090914 45 151 3.5 8.7 0.03 0.84 0.84 94 1005.0
20260506085914 45 237 4.3 10.4 0.04 0.84 0.84 94 1004.9
20260506084914 45 296 4.3 8.7 0.04 0.83 0.83 94 1004.8
20260506083914 45 196 4.3 10.4 0.05 0.83 0.83 94 1004.6
20260506082914 45 150 3.5 9.6 0.05 0.82 0.82 94 1004.6
20260506081914 44 101 3.5 7.0 0.06 0.81 0.81 94 1004.5
20260506080914 44 187 3.5 7.0 0.08 0.81 0.81 94 1004.5
20260506072914 44 245 4.3 10.4 0.10 0.77 0.77 94 1004.3
20260506071914 44 227 4.3 8.7 0.10 0.76 0.76 93 1004.3
20260506070914 44 153 3.5 7.8 0.10 0.74 0.74 93 1004.4
20260506061914 45 257 3.5 7.0 0.09 0.65 0.65 93 1004.2
20260506060914 46 194 3.5 6.1 0.09 0.63 0.63 93 1004.1
20260505220912 51 226 3.5 8.7 0.00 0.03 0.00 94 1006.2
20260505215912 51 202 4.3 9.6 0.00 0.05 0.05 93 1006.2
20260505214912 51 241 3.5 8.7 0.00 0.05 0.05 93 1006.3
20260505213912 51 232 3.5 7.8 0.00 0.05 0.05 93 1006.5